TimeMDT,TemperatureF,Dew PointF,Humidity,Sea Level PressureIn,VisibilityMPH,Wind Direction,Wind SpeedMPH,Gust SpeedMPH,PrecipitationIn,Events,Conditions,WindDirDegrees,DateUTC
12:15 AM,21.2,19.4,93,30.01,0.2,North,-9999.0,-,N/A,,Overcast,0,2013-10-11 06:15:00
12:35 AM,21.2,19.4,93,30.01,0.2,North,-9999.0,-,N/A,Fog,Light Freezing Fog,0,2013-10-11 06:35:00
12:55 AM,21.2,19.4,93,29.99,0.2,North,-9999.0,-,N/A,Snow,Light Snow,0,2013-10-11 06:55:00
1:15 AM,21.2,19.4,93,30.01,0.2,North,-9999.0,-,N/A,Fog,Light Freezing Fog,0,2013-10-11 07:15:00
1:35 AM,21.2,19.4,93,29.99,0.2,North,-9999.0,-,N/A,Fog,Light Freezing Fog,0,2013-10-11 07:35:00
1:55 AM,21.2,19.4,93,29.97,0.2,North,-9999.0,-,N/A,Fog,Light Freezing Fog,0,2013-10-11 07:55:00
2:15 AM,21.2,19.4,93,29.98,0.2,North,-9999.0,-,N/A,Fog,Light Freezing Fog,0,2013-10-11 08:15:00
2:35 AM,21.2,19.4,93,29.97,0.2,North,-9999.0,-,N/A,Fog,Light Freezing Fog,0,2013-10-11 08:35:00
2:55 AM,21.2,19.4,93,29.98,0.5,North,-9999.0,-,N/A,Fog,Light Freezing Fog,0,2013-10-11 08:55:00
3:15 AM,21.2,19.4,93,29.98,-9999.0,North,-9999.0,-,N/A,,Overcast,0,2013-10-11 09:15:00
3:35 AM,21.2,19.4,93,29.98,-9999.0,North,-9999.0,-,N/A,,Overcast,0,2013-10-11 09:35:00
3:55 AM,21.2,19.4,93,29.98,-9999.0,North,-9999.0,-,N/A,,Overcast,0,2013-10-11 09:55:00
4:15 AM,21.2,19.4,93,29.98,-9999.0,North,-9999.0,-,N/A,,Overcast,0,2013-10-11 10:15:00
4:35 AM,21.2,19.4,93,29.99,-9999.0,North,-9999.0,-,N/A,,Overcast,0,2013-10-11 10:35:00
4:55 AM,21.2,19.4,93,30.00,-9999.0,North,-9999.0,-,N/A,,Overcast,0,2013-10-11 10:55:00
5:15 AM,21.2,19.4,93,29.99,-9999.0,North,-9999.0,-,N/A,,Overcast,0,2013-10-11 11:15:00
5:35 AM,23.0,21.2,93,29.98,-9999.0,North,-9999.0,-,N/A,,Overcast,0,2013-10-11 11:35:00
5:55 AM,23.0,21.2,93,30.02,-9999.0,North,-9999.0,-,N/A,,Overcast,0,2013-10-11 11:55:00
6:15 AM,23.0,21.2,93,30.03,-9999.0,North,-9999.0,-,N/A,,Overcast,0,2013-10-11 12:15:00
6:35 AM,23.0,21.2,93,30.01,-9999.0,North,-9999.0,-,N/A,,Overcast,0,2013-10-11 12:35:00
6:55 AM,23.0,21.2,93,30.03,-9999.0,North,-9999.0,-,N/A,,Overcast,0,2013-10-11 12:55:00
7:15 AM,23.0,21.2,93,30.06,-9999.0,North,-9999.0,-,N/A,,Overcast,0,2013-10-11 13:15:00
7:35 AM,23.0,21.2,93,30.09,-9999.0,North,-9999.0,-,N/A,,Overcast,0,2013-10-11 13:35:00
7:55 AM,23.0,21.2,93,30.11,-9999.0,North,-9999.0,-,N/A,,Overcast,0,2013-10-11 13:55:00
8:15 AM,23.0,21.2,93,30.12,-9999.0,North,-9999.0,-,N/A,,Overcast,0,2013-10-11 14:15:00
8:35 AM,23.0,21.2,93,30.13,-9999.0,North,-9999.0,-,N/A,,Overcast,0,2013-10-11 14:35:00
8:55 AM,23.0,21.2,93,30.14,-9999.0,North,-9999.0,-,N/A,,Overcast,0,2013-10-11 14:55:00
9:15 AM,23.0,21.2,93,30.15,-9999.0,North,-9999.0,-,N/A,,Overcast,0,2013-10-11 15:15:00
9:35 AM,23.0,21.2,93,30.17,-9999.0,North,-9999.0,-,N/A,,Overcast,0,2013-10-11 15:35:00
9:55 AM,23.0,21.2,93,30.18,-9999.0,North,-9999.0,-,N/A,,Overcast,0,2013-10-11 15:55:00
10:15 AM,23.0,21.2,93,30.18,-9999.0,North,-9999.0,-,N/A,,Overcast,0,2013-10-11 16:15:00
10:35 AM,24.8,23.0,93,30.16,-9999.0,North,-9999.0,-,N/A,,Overcast,0,2013-10-11 16:35:00
10:55 AM,24.8,23.0,93,30.17,-9999.0,North,-9999.0,-,N/A,,Overcast,0,2013-10-11 16:55:00
11:15 AM,24.8,23.0,93,30.20,-9999.0,North,-9999.0,-,N/A,,Overcast,0,2013-10-11 17:15:00
11:35 AM,24.8,23.0,93,30.20,0.2,North,-9999.0,-,N/A,Fog,Light Freezing Fog,0,2013-10-11 17:35:00
11:55 AM,24.8,23.0,93,30.20,0.2,North,-9999.0,-,N/A,Fog,Light Freezing Fog,0,2013-10-11 17:55:00
12:15 PM,24.8,23.0,93,30.21,0.2,North,-9999.0,-,N/A,Fog,Light Freezing Fog,0,2013-10-11 18:15:00
12:35 PM,24.8,23.0,93,30.21,0.2,North,-9999.0,-,N/A,Fog,Light Freezing Fog,0,2013-10-11 18:35:00
12:55 PM,26.6,23.0,86,30.22,0.2,North,-9999.0,-,N/A,Fog,Light Freezing Fog,0,2013-10-11 18:55:00
1:15 PM,26.6,24.8,93,30.21,0.2,North,-9999.0,-,N/A,Fog,Light Freezing Fog,0,2013-10-11 19:15:00
1:35 PM,26.6,24.8,93,30.21,0.2,North,-9999.0,-,N/A,Fog,Light Freezing Fog,0,2013-10-11 19:35:00
1:55 PM,26.6,24.8,93,30.21,0.2,North,-9999.0,-,N/A,Fog,Light Freezing Fog,0,2013-10-11 19:55:00
2:15 PM,26.6,24.8,93,30.21,0.2,North,-9999.0,-,N/A,Fog,Light Freezing Fog,0,2013-10-11 20:15:00
2:35 PM,26.6,26.6,100,30.21,0.2,North,-9999.0,-,N/A,Fog,Light Freezing Fog,0,2013-10-11 20:35:00
2:55 PM,26.6,26.6,100,30.22,0.2,North,-9999.0,-,N/A,Fog,Light Freezing Fog,0,2013-10-11 20:55:00
3:15 PM,28.4,26.6,93,30.22,0.2,North,-9999.0,-,N/A,Fog,Light Freezing Fog,0,2013-10-11 21:15:00
3:35 PM,26.6,26.6,100,30.23,0.2,North,-9999.0,-,N/A,Fog,Light Freezing Fog,0,2013-10-11 21:35:00
3:55 PM,26.6,24.8,93,30.25,0.2,North,-9999.0,-,N/A,Fog,Light Freezing Fog,0,2013-10-11 21:55:00
4:15 PM,26.6,26.6,100,30.25,0.2,North,-9999.0,-,N/A,Snow,Snow,0,2013-10-11 22:15:00
4:35 PM,26.6,26.6,100,30.25,0.5,North,-9999.0,-,N/A,Fog,Light Freezing Fog,0,2013-10-11 22:35:00
4:55 PM,26.6,24.8,93,30.25,0.2,North,-9999.0,-,N/A,Fog,Light Freezing Fog,0,2013-10-11 22:55:00
5:15 PM,26.6,24.8,93,30.25,0.2,North,-9999.0,-,N/A,Fog,Light Freezing Fog,0,2013-10-11 23:15:00
5:35 PM,26.6,24.8,93,30.27,0.2,North,-9999.0,-,N/A,Fog,Light Freezing Fog,0,2013-10-11 23:35:00
5:55 PM,26.6,24.8,93,30.27,0.2,North,-9999.0,-,N/A,Fog,Light Freezing Fog,0,2013-10-11 23:55:00
6:15 PM,26.6,24.8,93,30.27,0.2,North,-9999.0,-,N/A,Fog,Light Freezing Fog,0,2013-10-12 00:15:00
6:35 PM,26.6,24.8,93,30.27,0.2,North,-9999.0,-,N/A,Fog,Light Freezing Fog,0,2013-10-12 00:35:00
6:55 PM,26.6,24.8,93,30.27,0.2,North,-9999.0,-,N/A,Snow,Heavy Snow,0,2013-10-12 00:55:00
7:15 PM,26.6,24.8,93,30.29,0.2,North,-9999.0,-,N/A,Snow,Light Snow,0,2013-10-12 01:15:00
7:35 PM,26.6,23.0,86,30.29,0.2,North,-9999.0,-,N/A,Fog,Light Freezing Fog,0,2013-10-12 01:35:00
7:55 PM,26.6,23.0,86,30.30,0.2,North,-9999.0,-,N/A,Fog,Light Freezing Fog,0,2013-10-12 01:55:00
8:15 PM,26.6,23.0,86,30.30,0.2,North,-9999.0,-,N/A,Fog,Light Freezing Fog,0,2013-10-12 02:15:00
8:35 PM,26.6,23.0,86,30.30,0.2,North,-9999.0,-,N/A,Fog,Light Freezing Fog,0,2013-10-12 02:35:00
8:55 PM,26.6,23.0,86,30.31,0.2,North,-9999.0,-,N/A,Fog,Light Freezing Fog,0,2013-10-12 02:55:00
9:15 PM,26.6,23.0,86,30.32,0.2,North,-9999.0,-,N/A,Fog,Light Freezing Fog,0,2013-10-12 03:15:00
9:35 PM,24.8,23.0,93,30.33,0.2,North,-9999.0,-,N/A,Fog,Light Freezing Fog,0,2013-10-12 03:35:00
9:55 PM,24.8,23.0,93,30.34,0.2,North,-9999.0,-,N/A,Fog,Light Freezing Fog,0,2013-10-12 03:55:00
10:15 PM,24.8,23.0,93,30.35,0.2,North,-9999.0,-,N/A,Fog,Light Freezing Fog,0,2013-10-12 04:15:00
10:35 PM,24.8,23.0,93,30.35,0.2,North,-9999.0,-,N/A,Fog,Light Freezing Fog,0,2013-10-12 04:35:00
10:55 PM,24.8,23.0,93,30.36,0.2,North,-9999.0,-,N/A,Fog,Light Freezing Fog,0,2013-10-12 04:55:00
11:15 PM,24.8,23.0,93,30.36,0.2,North,-9999.0,-,N/A,Fog,Light Freezing Fog,0,2013-10-12 05:15:00
11:35 PM,23.0,23.0,100,30.36,0.2,North,-9999.0,-,N/A,Fog,Light Freezing Fog,0,2013-10-12 05:35:00
11:55 PM,24.8,23.0,93,30.36,0.2,North,-9999.0,-,N/A,Fog,Light Freezing Fog,0,2013-10-12 05:55:00